Time,TemperatureF,DewpointF,PressureIn,WindDirection,WindDirectionDegrees,WindSpeedMPH,WindSpeedGustMPH,Humidity,HourlyPrecipIn,Conditions,Clouds,dailyrainin,SoftwareType,DateUTC
2013-10-09 00:11:00,40.9,39.0,30.13,WSW,240,0.0,0.0,93,0.00,,,0.00,Wunderground v.1.15,2013-10-09 07:11:00,
2013-10-09 00:21:00,40.7,38.6,30.13,WSW,240,0.0,0.0,92,0.00,,,0.00,Wunderground v.1.15,2013-10-09 07:21:00,
2013-10-09 00:31:00,40.5,38.6,30.13,WSW,240,0.0,0.0,93,0.00,,,0.00,Wunderground v.1.15,2013-10-09 07:31:00,
2013-10-09 00:41:00,40.4,38.5,30.13,WSW,240,0.0,0.0,93,0.00,,,0.00,Wunderground v.1.15,2013-10-09 07:41:00,
2013-10-09 00:51:00,40.2,38.3,30.14,WSW,240,0.0,0.0,93,0.00,,,0.00,Wunderground v.1.15,2013-10-09 07:51:00,
2013-10-09 01:01:00,40.0,38.1,30.14,WSW,240,0.0,0.0,93,0.00,,,0.00,Wunderground v.1.15,2013-10-09 08:01:00,
2013-10-09 01:11:00,39.8,37.9,30.14,WSW,240,0.0,0.0,93,0.00,,,0.00,Wunderground v.1.15,2013-10-09 08:11:00,
2013-10-09 01:21:00,39.6,37.7,30.14,WSW,240,0.0,0.0,93,0.00,,,0.00,Wunderground v.1.15,2013-10-09 08:21:00,
2013-10-09 01:31:00,39.5,37.6,30.15,WSW,240,0.0,0.0,93,0.00,,,0.00,Wunderground v.1.15,2013-10-09 08:31:00,
2013-10-09 01:41:00,39.3,37.4,30.15,WSW,240,0.0,0.0,93,0.00,,,0.00,Wunderground v.1.15,2013-10-09 08:41:00,
2013-10-09 02:01:00,38.9,37.0,30.16,WSW,240,0.0,0.0,93,0.00,,,0.00,Wunderground v.1.15,2013-10-09 09:01:00,
2013-10-09 02:11:00,38.8,36.9,30.16,WSW,240,0.0,0.0,93,0.00,,,0.00,Wunderground v.1.15,2013-10-09 09:11:00,
2013-10-09 02:21:00,38.6,36.8,30.16,WSW,240,0.0,0.0,93,0.00,,,0.00,Wunderground v.1.15,2013-10-09 09:21:00,
2013-10-09 02:31:00,38.4,36.6,30.16,WSW,240,0.0,0.0,93,0.00,,,0.00,Wunderground v.1.15,2013-10-09 09:31:00,
2013-10-09 02:41:00,38.3,36.5,30.16,WSW,240,0.0,0.0,93,0.00,,,0.00,Wunderground v.1.15,2013-10-09 09:41:00,
2013-10-09 02:51:00,38.2,36.4,30.16,WSW,240,0.0,0.0,93,0.00,,,0.00,Wunderground v.1.15,2013-10-09 09:51:00,
2013-10-09 03:01:00,38.1,36.3,30.16,WSW,240,0.0,0.0,93,0.00,,,0.00,Wunderground v.1.15,2013-10-09 10:01:00,
2013-10-09 03:11:00,38.0,36.2,30.16,WSW,240,0.0,0.0,93,0.00,,,0.00,Wunderground v.1.15,2013-10-09 10:11:00,
2013-10-09 03:21:00,37.9,36.3,30.16,WSW,240,0.0,0.0,94,0.00,,,0.00,Wunderground v.1.15,2013-10-09 10:21:00,
2013-10-09 03:31:00,37.8,36.2,30.16,WSW,240,0.0,0.0,94,0.00,,,0.00,Wunderground v.1.15,2013-10-09 10:31:00,
2013-10-09 03:41:00,37.7,36.1,30.16,WSW,240,0.0,0.0,94,0.00,,,0.00,Wunderground v.1.15,2013-10-09 10:41:00,
2013-10-09 03:51:00,37.6,36.0,30.16,WSW,240,0.0,0.0,94,0.00,,,0.00,Wunderground v.1.15,2013-10-09 10:51:00,
2013-10-09 04:01:00,37.4,35.8,30.16,WSW,240,0.0,0.0,94,0.00,,,0.00,Wunderground v.1.15,2013-10-09 11:01:00,
2013-10-09 04:11:00,37.3,35.7,30.16,WSW,240,0.0,0.0,94,0.00,,,0.00,Wunderground v.1.15,2013-10-09 11:11:00,
2013-10-09 04:21:00,37.2,35.6,30.16,WSW,240,0.0,0.0,94,0.00,,,0.00,Wunderground v.1.15,2013-10-09 11:21:00,
2013-10-09 04:31:00,37.0,35.4,30.17,WSW,240,0.0,0.0,94,0.00,,,0.00,Wunderground v.1.15,2013-10-09 11:31:00,
2013-10-09 04:41:00,36.9,35.3,30.17,WSW,240,0.0,0.0,94,0.00,,,0.00,Wunderground v.1.15,2013-10-09 11:41:00,
2013-10-09 04:51:00,36.8,35.2,30.17,WSW,240,0.0,0.0,94,0.00,,,0.00,Wunderground v.1.15,2013-10-09 11:51:00,
2013-10-09 05:01:00,36.6,35.0,30.17,WSW,240,0.0,0.0,94,0.00,,,0.00,Wunderground v.1.15,2013-10-09 12:01:00,
2013-10-09 05:11:00,36.6,35.0,30.17,WSW,240,0.0,0.0,94,0.00,,,0.00,Wunderground v.1.15,2013-10-09 12:11:00,
2013-10-09 05:21:00,36.6,35.0,30.17,WSW,240,0.0,0.0,94,0.00,,,0.00,Wunderground v.1.15,2013-10-09 12:21:00,
2013-10-09 05:31:00,36.5,35.2,30.17,WSW,240,0.0,0.0,95,0.00,,,0.00,Wunderground v.1.15,2013-10-09 12:31:00,
2013-10-09 05:41:00,36.6,35.3,30.17,WSW,240,0.0,0.0,95,0.00,,,0.00,Wunderground v.1.15,2013-10-09 12:41:00,
2013-10-09 05:51:00,36.5,35.2,30.17,WSW,240,0.0,0.0,95,0.00,,,0.00,Wunderground v.1.15,2013-10-09 12:51:00,
2013-10-09 06:01:00,36.5,35.2,30.17,WSW,240,0.0,0.0,95,0.00,,,0.00,Wunderground v.1.15,2013-10-09 13:01:00,
2013-10-09 06:11:00,36.4,35.1,30.17,WSW,240,0.0,0.0,95,0.00,,,0.00,Wunderground v.1.15,2013-10-09 13:11:00,
2013-10-09 06:21:00,36.2,34.9,30.17,WSW,240,0.0,0.0,95,0.00,,,0.00,Wunderground v.1.15,2013-10-09 13:21:00,
2013-10-09 06:31:00,36.1,34.8,30.18,WSW,240,0.0,0.0,95,0.00,,,0.00,Wunderground v.1.15,2013-10-09 13:31:00,
2013-10-09 06:41:00,35.9,34.6,30.18,WSW,240,0.0,0.0,95,0.00,,,0.00,Wunderground v.1.15,2013-10-09 13:41:00,
2013-10-09 06:51:00,35.7,34.1,30.18,WSW,240,0.0,0.0,94,0.00,,,0.00,Wunderground v.1.15,2013-10-09 13:51:00,
2013-10-09 07:01:00,35.5,34.2,30.18,WSW,240,0.0,0.0,95,0.00,,,0.00,Wunderground v.1.15,2013-10-09 14:01:00,
2013-10-09 07:11:00,35.4,34.1,30.18,WSW,240,0.0,0.0,95,0.00,,,0.00,Wunderground v.1.15,2013-10-09 14:11:00,
2013-10-09 07:21:00,35.2,33.9,30.18,WSW,240,0.0,0.0,95,0.00,,,0.00,Wunderground v.1.15,2013-10-09 14:21:00,
2013-10-09 07:31:00,35.1,33.5,30.18,WSW,240,0.0,0.0,94,0.00,,,0.00,Wunderground v.1.15,2013-10-09 14:31:00,
2013-10-09 07:41:00,35.0,33.7,30.18,WSW,240,0.0,0.0,95,0.00,,,0.00,Wunderground v.1.15,2013-10-09 14:41:00,
2013-10-09 07:51:00,34.8,33.5,30.18,WSW,240,0.0,0.0,95,0.00,,,0.00,Wunderground v.1.15,2013-10-09 14:51:00,
2013-10-09 08:01:00,34.8,33.2,30.19,WSW,240,0.0,0.0,94,0.00,,,0.00,Wunderground v.1.15,2013-10-09 15:01:00,
2013-10-09 08:11:00,34.7,33.2,30.19,WSW,240,0.0,0.0,94,0.00,,,0.00,Wunderground v.1.15,2013-10-09 15:11:00,
2013-10-09 08:21:00,34.6,33.3,30.19,WSW,240,0.0,0.0,95,0.00,,,0.00,Wunderground v.1.15,2013-10-09 15:21:00,
2013-10-09 08:31:00,34.6,33.3,30.19,WSW,240,0.0,0.0,95,0.00,,,0.00,Wunderground v.1.15,2013-10-09 15:31:00,
2013-10-09 08:41:00,34.6,33.3,30.19,WSW,240,0.0,0.0,95,0.00,,,0.00,Wunderground v.1.15,2013-10-09 15:41:00,
2013-10-09 08:51:00,34.8,33.5,30.19,WSW,240,0.0,0.0,95,0.00,,,0.00,Wunderground v.1.15,2013-10-09 15:51:00,
2013-10-09 09:01:00,35.0,33.7,30.18,WSW,240,0.0,0.0,95,0.00,,,0.00,Wunderground v.1.15,2013-10-09 16:01:00,
2013-10-09 09:11:00,35.4,34.4,30.18,WSW,240,0.0,0.0,96,0.00,,,0.00,Wunderground v.1.15,2013-10-09 16:11:00,
2013-10-09 09:21:00,36.0,35.0,30.18,WSW,240,0.0,0.0,96,0.00,,,0.00,Wunderground v.1.15,2013-10-09 16:21:00,
2013-10-09 09:31:00,36.6,35.6,30.18,WSW,239,0.0,0.0,96,0.00,,,0.00,Wunderground v.1.15,2013-10-09 16:31:00,
2013-10-09 09:41:00,37.4,36.6,30.18,WSW,239,0.0,0.0,97,0.00,,,0.00,Wunderground v.1.15,2013-10-09 16:41:00,
2013-10-09 09:51:00,38.3,37.5,30.18,SSE,166,0.0,0.0,97,0.00,,,0.00,Wunderground v.1.15,2013-10-09 16:51:00,
2013-10-09 10:01:00,39.3,38.5,30.18,South,171,0.0,0.0,97,0.00,,,0.00,Wunderground v.1.15,2013-10-09 17:01:00,
2013-10-09 10:11:00,40.1,39.3,30.17,South,171,0.0,0.0,97,0.00,,,0.00,Wunderground v.1.15,2013-10-09 17:11:00,
2013-10-09 10:21:00,40.9,40.1,30.17,South,171,0.0,0.0,97,0.00,,,0.00,Wunderground v.1.15,2013-10-09 17:21:00,
2013-10-09 10:31:00,43.6,43.1,30.16,South,171,0.0,1.0,98,0.00,,,0.00,Wunderground v.1.15,2013-10-09 17:31:00,
2013-10-09 10:41:00,44.0,43.2,30.16,South,171,0.0,0.0,97,0.00,,,0.00,Wunderground v.1.15,2013-10-09 17:41:00,
2013-10-09 10:51:00,44.6,43.8,30.17,South,171,0.0,0.0,97,0.00,,,0.00,Wunderground v.1.15,2013-10-09 17:51:00,
2013-10-09 11:01:00,47.9,46.8,30.17,South,171,0.0,0.0,96,0.00,,,0.00,Wunderground v.1.15,2013-10-09 18:01:00,
2013-10-09 11:11:00,49.1,46.0,30.17,ENE,76,0.0,0.0,89,0.00,,,0.00,Wunderground v.1.15,2013-10-09 18:11:00,
2013-10-09 11:21:00,49.2,46.4,30.17,West,279,0.0,0.0,90,0.00,,,0.00,Wunderground v.1.15,2013-10-09 18:21:00,
2013-10-09 11:31:00,49.4,46.3,30.16,South,181,0.0,1.0,89,0.00,,,0.00,Wunderground v.1.15,2013-10-09 18:31:00,
2013-10-09 11:41:00,50.2,46.8,30.16,ENE,69,0.0,0.0,88,0.00,,,0.00,Wunderground v.1.15,2013-10-09 18:41:00,
2013-10-09 11:51:00,51.0,46.6,30.16,West,270,0.0,0.0,85,0.00,,,0.00,Wunderground v.1.15,2013-10-09 18:51:00,
2013-10-09 12:01:00,51.0,46.0,30.15,West,270,0.0,0.0,83,0.00,,,0.00,Wunderground v.1.15,2013-10-09 19:01:00,
2013-10-09 12:11:00,51.1,46.7,30.15,SSE,148,0.0,0.0,85,0.00,,,0.00,Wunderground v.1.15,2013-10-09 19:11:00,
2013-10-09 12:21:00,51.8,47.7,30.14,SSW,209,0.0,0.0,86,0.00,,,0.00,Wunderground v.1.15,2013-10-09 19:21:00,
2013-10-09 12:31:00,52.6,46.6,30.14,SSE,165,0.0,0.0,80,0.00,,,0.00,Wunderground v.1.15,2013-10-09 19:31:00,
2013-10-09 12:41:00,52.7,47.0,30.13,South,172,0.0,0.0,81,0.00,,,0.00,Wunderground v.1.15,2013-10-09 19:41:00,
2013-10-09 12:51:00,52.6,46.9,30.13,South,172,0.0,0.0,81,0.00,,,0.00,Wunderground v.1.15,2013-10-09 19:51:00,
2013-10-09 13:01:00,52.8,48.1,30.13,South,172,0.0,0.0,84,0.00,,,0.00,Wunderground v.1.15,2013-10-09 20:01:00,
2013-10-09 13:11:00,53.1,48.1,30.12,ESE,104,0.0,0.0,83,0.00,,,0.00,Wunderground v.1.15,2013-10-09 20:11:00,
2013-10-09 13:21:00,53.3,47.3,30.11,ESE,105,0.0,1.0,80,0.00,,,0.00,Wunderground v.1.15,2013-10-09 20:21:00,
2013-10-09 13:31:00,53.4,47.4,30.11,ESE,107,0.0,0.0,80,0.00,,,0.00,Wunderground v.1.15,2013-10-09 20:31:00,
2013-10-09 13:41:00,53.9,48.2,30.11,SSE,153,0.0,0.0,81,0.00,,,0.00,Wunderground v.1.15,2013-10-09 20:41:00,
2013-10-09 13:51:00,53.7,48.0,30.10,South,176,0.0,0.0,81,0.00,,,0.00,Wunderground v.1.15,2013-10-09 20:51:00,
2013-10-09 14:01:00,54.5,48.1,30.10,WNW,294,1.0,1.0,79,0.00,,,0.00,Wunderground v.1.15,2013-10-09 21:01:00,
2013-10-09 14:11:00,55.1,49.4,30.10,WNW,297,0.0,0.0,81,0.00,,,0.00,Wunderground v.1.15,2013-10-09 21:11:00,
2013-10-09 14:21:00,55.4,48.7,30.10,ESE,107,0.0,0.0,78,0.00,,,0.00,Wunderground v.1.15,2013-10-09 21:21:00,
2013-10-09 14:31:00,55.6,48.2,30.10,SE,128,0.0,0.0,76,0.00,,,0.00,Wunderground v.1.15,2013-10-09 21:31:00,
2013-10-09 14:41:00,55.7,50.0,30.09,SW,225,0.0,0.0,81,0.00,,,0.00,Wunderground v.1.15,2013-10-09 21:41:00,
2013-10-09 14:51:00,55.7,49.3,30.09,SW,232,0.0,0.0,79,0.00,,,0.00,Wunderground v.1.15,2013-10-09 21:51:00,
2013-10-09 15:01:00,56.1,50.3,30.09,NNE,22,0.0,0.0,81,0.00,,,0.00,Wunderground v.1.15,2013-10-09 22:01:00,
2013-10-09 15:11:00,56.2,48.7,30.09,NNE,20,0.0,0.0,76,0.00,,,0.00,Wunderground v.1.15,2013-10-09 22:11:00,
2013-10-09 15:21:00,56.1,48.6,30.09,NNE,29,0.0,0.0,76,0.00,,,0.00,Wunderground v.1.15,2013-10-09 22:21:00,
2013-10-09 15:31:00,56.2,48.7,30.08,North,360,0.0,1.0,76,0.00,,,0.00,Wunderground v.1.15,2013-10-09 22:31:00,
2013-10-09 15:41:00,56.1,49.0,30.08,NNE,12,1.0,1.0,77,0.00,,,0.00,Wunderground v.1.15,2013-10-09 22:41:00,
2013-10-09 15:51:00,56.0,48.5,30.08,NNE,12,0.0,0.0,76,0.00,,,0.00,Wunderground v.1.15,2013-10-09 22:51:00,
2013-10-09 16:01:00,55.9,48.8,30.08,NNE,12,0.0,0.0,77,0.00,,,0.00,Wunderground v.1.15,2013-10-09 23:01:00,
2013-10-09 16:11:00,55.8,48.7,30.07,NNE,18,0.0,1.0,77,0.00,,,0.00,Wunderground v.1.15,2013-10-09 23:11:00,
2013-10-09 16:21:00,55.6,48.2,30.07,NNW,338,0.0,0.0,76,0.00,,,0.00,Wunderground v.1.15,2013-10-09 23:21:00,
2013-10-09 16:31:00,55.6,48.5,30.07,NNW,338,0.0,0.0,77,0.00,,,0.00,Wunderground v.1.15,2013-10-09 23:31:00,
2013-10-09 16:41:00,55.6,47.8,30.07,SE,135,0.0,0.0,75,0.00,,,0.00,Wunderground v.1.15,2013-10-09 23:41:00,
2013-10-09 16:51:00,55.5,48.1,30.07,SSE,150,0.0,0.0,76,0.00,,,0.00,Wunderground v.1.15,2013-10-09 23:51:00,
2013-10-09 17:01:00,55.3,48.2,30.06,SSE,150,0.0,0.0,77,0.00,,,0.00,Wunderground v.1.15,2013-10-10 00:01:00,
2013-10-09 17:11:00,55.0,47.9,30.06,SSE,150,0.0,0.0,77,0.00,,,0.00,Wunderground v.1.15,2013-10-10 00:11:00,
2013-10-09 17:21:00,54.7,48.3,30.06,SSE,150,0.0,0.0,79,0.00,,,0.00,Wunderground v.1.15,2013-10-10 00:21:00,
2013-10-09 17:31:00,54.3,48.3,30.05,SSE,150,0.0,0.0,80,0.00,,,0.00,Wunderground v.1.15,2013-10-10 00:31:00,
2013-10-09 17:41:00,53.8,48.1,30.05,SSE,150,0.0,0.0,81,0.00,,,0.00,Wunderground v.1.15,2013-10-10 00:41:00,
2013-10-09 17:51:00,53.3,47.6,30.06,SSE,150,0.0,0.0,81,0.00,,,0.00,Wunderground v.1.15,2013-10-10 00:51:00,
2013-10-09 18:01:00,52.8,47.5,30.06,SSE,150,0.0,0.0,82,0.00,,,0.00,Wunderground v.1.15,2013-10-10 01:01:00,
2013-10-09 18:11:00,52.3,47.6,30.06,SSE,150,0.0,0.0,84,0.00,,,0.00,Wunderground v.1.15,2013-10-10 01:11:00,
2013-10-09 18:21:00,51.8,46.8,30.05,SSE,150,0.0,0.0,83,0.00,,,0.00,Wunderground v.1.15,2013-10-10 01:21:00,
2013-10-09 18:31:00,51.2,46.2,30.05,SSE,150,0.0,0.0,83,0.00,,,0.00,Wunderground v.1.15,2013-10-10 01:31:00,
2013-10-09 18:41:00,50.5,45.5,30.05,SSE,150,0.0,0.0,83,0.00,,,0.00,Wunderground v.1.15,2013-10-10 01:41:00,
2013-10-09 18:51:00,50.0,45.4,30.05,SSE,150,0.0,0.0,84,0.00,,,0.00,Wunderground v.1.15,2013-10-10 01:51:00,
2013-10-09 19:01:00,49.3,44.7,30.05,SSE,150,0.0,0.0,84,0.00,,,0.00,Wunderground v.1.15,2013-10-10 02:01:00,
2013-10-09 19:11:00,48.8,44.5,30.05,SSE,150,0.0,0.0,85,0.00,,,0.00,Wunderground v.1.15,2013-10-10 02:11:00,
2013-10-09 19:21:00,48.2,44.2,30.05,SSE,150,0.0,0.0,86,0.00,,,0.00,Wunderground v.1.15,2013-10-10 02:21:00,
2013-10-09 19:31:00,47.8,44.1,30.05,SSE,150,0.0,0.0,87,0.00,,,0.00,Wunderground v.1.15,2013-10-10 02:31:00,
2013-10-09 19:41:00,47.4,43.7,30.05,SSE,150,0.0,0.0,87,0.00,,,0.00,Wunderground v.1.15,2013-10-10 02:41:00,
2013-10-09 19:51:00,47.0,43.6,30.05,SSE,150,0.0,0.0,88,0.00,,,0.00,Wunderground v.1.15,2013-10-10 02:51:00,
2013-10-09 20:01:00,46.7,43.3,30.05,East,88,0.0,0.0,88,0.00,,,0.00,Wunderground v.1.15,2013-10-10 03:01:00,
2013-10-09 20:11:00,46.3,43.2,30.05,East,88,0.0,0.0,89,0.00,,,0.00,Wunderground v.1.15,2013-10-10 03:11:00,
2013-10-09 20:21:00,46.0,42.9,30.05,East,88,0.0,0.0,89,0.00,,,0.00,Wunderground v.1.15,2013-10-10 03:21:00,
2013-10-09 20:31:00,45.8,42.7,30.05,East,88,0.0,0.0,89,0.00,,,0.00,Wunderground v.1.15,2013-10-10 03:31:00,
2013-10-09 20:41:00,45.6,42.8,30.04,East,88,0.0,0.0,90,0.00,,,0.00,Wunderground v.1.15,2013-10-10 03:41:00,
2013-10-09 20:51:00,45.4,42.6,30.05,East,88,0.0,0.0,90,0.00,,,0.00,Wunderground v.1.15,2013-10-10 03:51:00,
2013-10-09 21:01:00,45.3,42.5,30.04,East,88,0.0,0.0,90,0.00,,,0.00,Wunderground v.1.15,2013-10-10 04:01:00,
2013-10-09 21:11:00,45.2,42.4,30.03,East,88,0.0,0.0,90,0.00,,,0.00,Wunderground v.1.15,2013-10-10 04:11:00,
2013-10-09 21:21:00,45.2,42.7,30.04,East,88,0.0,0.0,91,0.00,,,0.00,Wunderground v.1.15,2013-10-10 04:21:00,
2013-10-09 21:31:00,45.2,42.7,30.04,East,88,0.0,0.0,91,0.00,,,0.00,Wunderground v.1.15,2013-10-10 04:31:00,
2013-10-09 21:41:00,45.3,43.1,30.04,East,88,0.0,0.0,92,0.00,,,0.00,Wunderground v.1.15,2013-10-10 04:41:00,
2013-10-09 21:51:00,45.3,43.1,30.04,East,88,0.0,0.0,92,0.00,,,0.00,Wunderground v.1.15,2013-10-10 04:51:00,
2013-10-09 22:01:00,45.3,43.1,30.03,East,88,0.0,0.0,92,0.00,,,0.00,Wunderground v.1.15,2013-10-10 05:01:00,
2013-10-09 22:11:00,45.4,43.2,30.03,East,88,0.0,0.0,92,0.00,,,0.00,Wunderground v.1.15,2013-10-10 05:11:00,
2013-10-09 22:21:00,45.4,43.2,30.03,East,88,0.0,0.0,92,0.00,,,0.00,Wunderground v.1.15,2013-10-10 05:21:00,
2013-10-09 22:31:00,45.5,43.3,30.03,East,88,0.0,0.0,92,0.00,,,0.00,Wunderground v.1.15,2013-10-10 05:31:00,
2013-10-09 22:41:00,45.5,43.6,30.02,East,88,0.0,0.0,93,0.00,,,0.00,Wunderground v.1.15,2013-10-10 05:41:00,
2013-10-09 22:51:00,45.6,43.7,30.02,East,88,0.0,0.0,93,0.00,,,0.00,Wunderground v.1.15,2013-10-10 05:51:00,
2013-10-09 23:01:00,45.6,43.7,30.02,East,88,0.0,0.0,93,0.00,,,0.00,Wunderground v.1.15,2013-10-10 06:01:00,
2013-10-09 23:11:00,45.6,43.7,30.02,East,88,0.0,0.0,93,0.00,,,0.00,Wunderground v.1.15,2013-10-10 06:11:00,
2013-10-09 23:21:00,45.6,43.7,30.02,East,88,0.0,0.0,93,0.00,,,0.00,Wunderground v.1.15,2013-10-10 06:21:00,
2013-10-09 23:31:00,45.6,43.7,30.02,East,88,0.0,0.0,93,0.00,,,0.00,Wunderground v.1.15,2013-10-10 06:31:00,
2013-10-09 23:41:00,45.5,43.6,30.01,East,88,0.0,0.0,93,0.00,,,0.00,Wunderground v.1.15,2013-10-10 06:41:00,
2013-10-09 23:51:00,45.4,43.5,30.01,East,88,0.0,0.0,93,0.00,,,0.00,Wunderground v.1.15,2013-10-10 06:51:00,